[[{"header":{"parameterUnit":"m.s-1","parameterCategory":1,"la1":30.2991,"la2":30.254,"lo1":-89.0895,"lo2":-89.0444,"dy":0.0017,"dx":0.0017,"nx":28,"ny":28,"refTime":"2025-06-07T21:00:00:Z","depth":0,"parameterNumber":2,"parameterNumberName":"U-component_of_WINDS"},"data":[0,0,0,0,0,0,0,0,0,0,0,0,0,0,0,0,0,0,0,0,0,0,0,0,0,0,0,0,0,0,0,0,0,0,0,0,0,0,0,0,0,0,0,0,0,0,0,0,0,0,0,0,0,0,0,0,0,0,1.9734,1.9736,0,1.9889,1.9891,1.9893,1.9962,1.9962,1.9962,1.9961,2.0123,2.0128,2.0132,0,0,0,0,0,0,0,0,0,0,0,0,0,1.9505,1.9508,1.9734,1.9736,1.9738,1.9889,1.9891,1.9893,1.9962,1.9962,1.9962,1.9961,2.0122,2.0127,2.0133,0,0,0,0,0,0,0,0,0,0,0,0,0,1.9626,1.951,1.9733,1.979,1.9797,1.9888,1.9891,1.9894,1.9962,1.9962,1.9961,1.9961,2.012,2.0127,2.0133,2.0181,0,0,2.0154,2.0157,0,0,0,0,0,0,0,0,1.9619,1.9635,1.978,1.9787,1.9794,1.9906,1.9869,1.999,1.9962,1.9899,1.9961,1.9961,2.0051,2.0064,2.0094,2.0188,2.0195,2.0154,2.0159,2.0161,2.0163,0,0,0,0,0,0,0,1.9611,1.9628,1.9795,1.9782,1.9791,1.981,1.9827,1.9893,1.9975,1.9905,1.991,1.9928,2.0055,2.0087,2.0098,2.0198,2.0154,2.016,2.0164,2.0167,2.0346,2.0347,0,0,0,0,0,0,1.9592,1.9621,1.979,1.98,1.9704,1.9815,1.9834,1.987,1.9975,1.999,1.9928,1.993,2.0076,2.009,2.0104,2.017,2.0161,2.0168,2.0172,2.0345,2.0346,2.0347,0,0,0,0,0,0,1.9587,1.9607,1.9784,1.9712,1.9736,1.9819,1.986,1.9873,1.9905,1.9992,2.0007,1.9944,2.0076,2.0094,2.0162,2.0177,2.0171,2.0177,2.0344,2.0346,2.0347,2.0301,0,0,0,0,0,0,1.958,1.9604,1.9621,1.9712,1.974,1.9837,1.986,1.9877,1.9916,1.9921,2.0012,2.0026,2.0077,2.0152,2.0169,2.0186,2.0182,2.0344,2.0345,2.0346,2.0301,2.03,2.0299,0,0,0,0,0,1.9572,1.9601,1.9621,1.9642,1.9762,1.9838,1.9854,1.9911,1.9917,1.9936,1.9993,2.0024,2.0172,2.0158,2.0178,2.0197,2.0343,2.0345,2.0346,2.0302,2.03,2.0299,0,0,0,0,0,0,1.951,1.9614,1.9638,1.9697,1.9758,1.985,1.9875,1.9907,1.9968,1.997,2.0039,2.0059,2.0122,2.0167,2.0149,2.0252,2.0261,2.0266,2.022,2.022,2.0219,2.0207,2.0188,0,0,0,0,0,1.9503,1.9554,1.9643,1.9687,1.9717,1.9791,1.9826,1.9865,1.9931,1.9958,2.0019,2.0084,2.0146,2.0185,2.0247,2.0309,2.0332,2.0332,2.0331,2.033,2.0334,2.0376,2.0378,2.0352,2.0352,2.0352,0,0,1.9489,1.9553,1.9581,1.9677,1.9729,1.9783,1.9812,1.9867,1.9909,1.9967,2.0035,2.0083,2.016,2.0227,2.0259,2.0266,2.0347,2.0332,2.033,2.0335,2.0377,2.038,2.0382,2.0353,2.0353,2.0353,0,0,1.9493,1.9544,1.9589,1.9642,1.9721,1.977,1.9781,1.9869,1.9903,1.9973,2.0019,2.0072,2.0175,2.023,2.0272,2.0303,2.0335,2.0321,2.0315,2.0355,2.0357,2.0359,2.0374,2.0378,2.0325,2.0325,2.0325,0,1.9466,1.9548,1.9608,1.9662,1.9705,1.9761,1.9809,1.9857,1.9952,1.9982,1.9988,2.0124,2.0179,2.0262,2.027,2.03,2.0318,2.0311,2.0351,2.0354,2.0357,2.0372,2.0377,2.0323,2.0323,2.0323,2.0323,0,1.9514,1.957,1.9597,1.9689,1.9735,1.9786,1.9857,1.9897,1.9933,1.9983,2.0057,2.0127,2.0206,2.0228,2.0263,2.0318,2.032,2.0338,2.0348,2.0357,2.0372,2.0378,2.032,2.0321,2.0321,2.0322,0,0,1.9479,1.9607,1.9616,1.9661,1.9754,1.9801,1.9857,1.9934,1.9969,2.0034,2.0085,2.0175,2.0194,2.0241,2.0283,2.0318,2.0344,2.0333,2.0336,2.0335,2.0413,2.04,2.0406,2.0366,2.0367,2.0368,2.0408,0,1.9497,1.9597,1.9656,1.9734,1.979,1.9847,1.9896,1.9961,2.0011,2.0068,2.0124,2.0187,2.0205,2.0235,2.0272,2.0332,2.0361,2.033,2.0417,2.0419,2.0397,2.0413,2.0399,2.0433,2.0414,2.0415,2.0416,0,1.953,1.9596,1.968,1.9773,1.9799,1.9841,1.992,1.9973,2.005,2.0084,2.0139,2.0183,2.0248,2.0254,2.0347,2.0325,2.0365,2.04,2.0403,2.0415,2.0418,2.0427,2.0444,2.045,2.0425,2.0424,2.0424,0,1.9501,1.961,1.9676,1.9712,1.9821,1.9851,1.9898,1.9974,2.0019,2.0089,2.012,2.0196,2.0238,2.0297,2.0362,2.036,2.0451,2.046,2.0484,2.0483,2.0501,2.0499,2.0527,2.0523,2.0523,2.0523,2.0523,0,1.9516,1.9565,1.9665,1.9705,1.9764,1.9833,1.9891,1.9943,2.0012,2.0066,2.0119,2.0169,2.0251,2.0313,2.0364,2.0436,2.0454,2.0486,2.05,2.0483,2.0479,2.051,2.051,2.0524,2.0524,2.0524,2.0523,0,1.9492,1.956,1.9636,1.9734,1.9761,1.98,1.9886,1.993,1.9984,2.0053,2.0073,2.0159,2.0234,2.0305,2.0406,2.0441,2.0515,2.053,2.0488,2.0496,2.0517,2.0515,2.0567,2.058,2.0564,2.0564,2.0565,0,1.9497,1.9537,1.9641,1.9682,1.9728,1.9791,1.9839,1.991,1.9957,2.0051,2.0084,2.0164,2.0232,2.0351,2.0424,2.0503,2.0523,2.0536,2.0535,2.0518,2.0527,2.0525,2.0531,2.0535,2.0535,2.0534,2.0534,0,1.9501,1.9534,1.9599,1.9678,1.9733,1.9798,1.9865,1.9895,1.998,2.0031,2.011,2.0162,2.0268,2.0348,2.0436,2.0488,2.0527,2.0534,2.0545,2.0528,2.0504,2.0521,2.0488,2.0533,2.0533,2.0533,2.0533,2.0533,1.9494,1.9535,1.9616,1.9688,1.9747,1.981,1.9857,1.9919,1.9985,2.0076,2.0115,2.0196,2.0278,2.04,2.0453,2.0519,2.0527,2.0541,2.0545,2.0548,2.0546,2.0492,2.0535,2.0535,2.0535,2.0535,2.0535,0,1.9503,1.956,1.9625,1.9719,1.9778,1.9809,1.9887,1.9934,2.0005,2.0077,2.0144,2.0238,2.0317,2.0398,2.0483,2.0521,2.0542,2.0542,2.054,2.0553,2.0532,2.0516,2.0524,2.0524,2.0524,2.0524,2.0524,2.0524,1.9515,1.9586,1.963,1.9734,1.979,1.987,1.9912,1.9972,2.0032,2.0133,2.02,2.0252,2.033,2.0423,2.0499,2.0521,2.0551,2.0546,2.0574,2.0553,2.0553,2.0554,2.0539,2.0552,2.0552,2.059,2.059,2.059]},{"header":{"parameterUnit":"m.s-1","parameterCategory":1,"la1":30.2991,"la2":30.254,"lo1":-89.0895,"lo2":-89.0444,"dy":0.0017,"dx":0.0017,"nx":28,"ny":28,"refTime":"2025-06-07T21:00:00:Z","depth":0,"parameterNumber":3,"parameterNumberName":"V-component_of_WINDS"},"data":[0,0,0,0,0,0,0,0,0,0,0,0,0,0,0,0,0,0,0,0,0,0,0,0,0,0,0,0,0,0,0,0,0,0,0,0,0,0,0,0,0,0,0,0,0,0,0,0,0,0,0,0,0,0,0,0,0,0,5.2222,5.2223,0,5.2349,5.2351,5.2352,5.2383,5.2382,5.2381,5.238,5.2504,5.2508,5.2512,0,0,0,0,0,0,0,0,0,0,0,0,0,5.2,5.2004,5.2222,5.2223,5.2225,5.2349,5.2351,5.2353,5.2383,5.2382,5.2381,5.238,5.2503,5.2508,5.2512,0,0,0,0,0,0,0,0,0,0,0,0,0,5.2109,5.2005,5.2221,5.2255,5.2259,5.2349,5.2351,5.2353,5.2383,5.2382,5.238,5.2379,5.2501,5.2507,5.2513,5.2576,0,0,5.2532,5.2534,0,0,0,0,0,0,0,0,5.2102,5.2117,5.2249,5.2253,5.2258,5.2349,5.2318,5.2427,5.2383,5.2336,5.238,5.2379,5.2453,5.2463,5.2489,5.2582,5.2587,5.2532,5.2536,5.2539,5.254,0,0,0,0,0,0,0,5.2095,5.2111,5.2272,5.225,5.2256,5.2262,5.2277,5.2339,5.24,5.234,5.2342,5.2357,5.2455,5.2483,5.2493,5.2589,5.2532,5.2538,5.2541,5.2544,5.2742,5.2743,0,0,0,0,0,0,5.2082,5.2105,5.2268,5.2276,5.2176,5.2267,5.2283,5.2321,5.2399,5.241,5.2358,5.2358,5.2474,5.2485,5.2497,5.2578,5.2539,5.2544,5.2548,5.274,5.2742,5.2744,0,0,0,0,0,0,5.2077,5.2096,5.2263,5.2191,5.2213,5.2273,5.2315,5.2324,5.2352,5.2413,5.2424,5.2377,5.2473,5.2488,5.2557,5.2583,5.2547,5.2553,5.2738,5.2741,5.2743,5.2739,0,0,0,0,0,0,5.2071,5.2095,5.212,5.2192,5.2217,5.2322,5.2316,5.2327,5.2364,5.2365,5.2433,5.2443,5.2473,5.2548,5.2563,5.2591,5.2557,5.2736,5.2739,5.2742,5.2737,5.2741,5.2744,0,0,0,0,0,5.2063,5.2112,5.2121,5.2141,5.225,5.2324,5.2338,5.2374,5.2366,5.2391,5.2431,5.2441,5.2577,5.2555,5.2572,5.2602,5.2735,5.2738,5.2742,5.2736,5.274,5.2744,0,0,0,0,0,0,5.2038,5.2121,5.2133,5.2207,5.2258,5.2329,5.2362,5.2377,5.243,5.2429,5.2469,5.2484,5.2551,5.2583,5.2556,5.2668,5.2656,5.2663,5.2645,5.265,5.2653,5.2645,5.2562,0,0,0,0,0,5.2042,5.2097,5.2166,5.2224,5.225,5.2301,5.2335,5.2358,5.2412,5.2434,5.2478,5.2528,5.2583,5.2618,5.2671,5.2742,5.2758,5.2771,5.2774,5.2777,5.2783,5.2825,5.2832,5.2756,5.2756,5.2755,0,0,5.2049,5.2101,5.2133,5.222,5.2263,5.2318,5.2319,5.2376,5.2418,5.2441,5.2511,5.2545,5.2604,5.2675,5.2708,5.2703,5.2808,5.2781,5.2783,5.2788,5.2829,5.2837,5.2843,5.2758,5.2758,5.2757,0,0,5.2091,5.2135,5.219,5.2234,5.23,5.2335,5.2348,5.2417,5.2442,5.2512,5.2532,5.258,5.2673,5.2715,5.2749,5.2809,5.2821,5.2825,5.2844,5.2885,5.2891,5.2896,5.292,5.2928,5.2831,5.2831,5.2831,0,5.2091,5.2176,5.2216,5.2274,5.2313,5.234,5.2396,5.2435,5.2514,5.254,5.2534,5.2653,5.2694,5.2777,5.2792,5.2817,5.2834,5.2818,5.2887,5.2893,5.2899,5.2922,5.293,5.2831,5.2831,5.2831,5.2831,0,5.2174,5.2233,5.2269,5.2349,5.2391,5.2447,5.2495,5.2532,5.2553,5.2588,5.266,5.2711,5.2777,5.2797,5.2816,5.2883,5.2879,5.2879,5.2868,5.2906,5.2928,5.2937,5.2831,5.2831,5.2831,5.2831,0,0,5.2203,5.2306,5.2319,5.2357,5.2432,5.2478,5.2536,5.2603,5.2635,5.2688,5.2738,5.2818,5.282,5.2858,5.2882,5.2917,5.2965,5.2914,5.2916,5.2924,5.3044,5.3045,5.3054,5.2973,5.2975,5.2976,5.304,0,5.2255,5.2363,5.2401,5.2489,5.2545,5.2572,5.2623,5.2674,5.2709,5.276,5.2797,5.2854,5.2851,5.2875,5.2911,5.2951,5.299,5.2947,5.302,5.3022,5.3006,5.3066,5.3066,5.3123,5.3049,5.305,5.3051,0,5.2331,5.239,5.2484,5.2556,5.2581,5.2626,5.2692,5.274,5.2799,5.2822,5.2866,5.2888,5.295,5.2934,5.3019,5.2989,5.3021,5.3045,5.3049,5.3058,5.304,5.3078,5.3142,5.3152,5.3065,5.3064,5.3063,0,5.2345,5.2447,5.2518,5.2549,5.2633,5.2665,5.2701,5.276,5.2798,5.2855,5.2881,5.2942,5.2977,5.3024,5.3062,5.3047,5.3144,5.3131,5.3165,5.3164,5.3185,5.3184,5.3257,5.3202,5.3202,5.3202,5.3202,0,5.2401,5.2457,5.2526,5.2569,5.2634,5.2678,5.274,5.2778,5.283,5.2881,5.2907,5.2953,5.3001,5.3053,5.3083,5.315,5.3165,5.3185,5.3192,5.3184,5.3181,5.3206,5.3204,5.3205,5.3204,5.3204,5.3203,0,5.2428,5.2476,5.2555,5.263,5.2651,5.2695,5.2759,5.2802,5.2839,5.2903,5.292,5.2977,5.304,5.3083,5.3163,5.3184,5.3257,5.3263,5.3239,5.3243,5.3275,5.3272,5.3368,5.3384,5.3317,5.3317,5.3318,0,5.2461,5.2506,5.2588,5.2625,5.2663,5.2722,5.2763,5.2807,5.2849,5.2921,5.2956,5.3022,5.3077,5.3177,5.3225,5.3287,5.3295,5.3325,5.3304,5.3295,5.3298,5.3296,5.3302,5.3328,5.3329,5.3329,5.3329,0,5.2515,5.2538,5.2597,5.2666,5.2715,5.277,5.2825,5.2853,5.2907,5.2952,5.302,5.3063,5.3147,5.3213,5.328,5.3316,5.3332,5.3336,5.3347,5.334,5.3325,5.3336,5.3249,5.3333,5.3333,5.3333,5.3332,5.3332,5.2548,5.2591,5.2657,5.2722,5.2769,5.2821,5.2866,5.291,5.2968,5.3042,5.3064,5.3135,5.3194,5.3287,5.3324,5.3379,5.3376,5.3392,5.3396,5.34,5.3402,5.3315,5.3391,5.3391,5.3391,5.3391,5.339,0,5.2606,5.2651,5.2711,5.279,5.2841,5.2855,5.2917,5.2959,5.3022,5.3077,5.3133,5.3211,5.3275,5.3329,5.3395,5.3429,5.3438,5.3445,5.3444,5.3453,5.3399,5.3384,5.3437,5.3437,5.3437,5.3437,5.3437,5.3437,5.2643,5.2717,5.2748,5.2845,5.2889,5.2961,5.2995,5.3043,5.3088,5.3176,5.3231,5.3266,5.3321,5.3392,5.3452,5.3466,5.349,5.3496,5.3512,5.3461,5.3456,5.3451,5.3437,5.35,5.35,5.3561,5.3561,5.3562]}]]